Weather Roundup
Issued by NWS

Home | Current Version | Previous Version | Graphics & Text | Print | Product List | Glossary Off
Versions: 1 2 3 4 5 6 7 8 9 10 11 12 13 14 15 16 17 18 19 20 21 22 23 24 25 26 27 28 29 30 31 32 33 34 35 36 37 38 39 40 41 42 43 44 45 46 47 48 49 50

000
NZUS93 KARX 211810
HRRWXR

CURRENT HOURLY OBSERVATIONS ACROSS
MUCH OF THE UPPER MISSISSIPPI VALLEY
NATIONAL WEATHER SERVICE LA CROSSE WI
100 PM CDT MON JUL 21 2014


...SOUTHEAST MINNESOTA...


CITY           SKY/WX    TMP DP  RH WIND       PRES   REMARKS
ROCHESTER      SUNNY     83  73  72 SE15G22   29.96F
ROCHESTER/MAYO FAIR      83  68  61 SE15      29.95F
WINONA         SUNNY     82  70  65 S6        29.96F
AUSTIN         SUNNY     84  72  65 S13G18    29.94F
ALBERT LEA     SUNNY     86  72  62 SE16      29.92F HX  92
DODGE CENTER   SUNNY     84  73  70 S15       29.95S HX  91
PRESTON        SUNNY     82  75  79 SE15G21   29.98F
OWATONNA       SUNNY     86  72  62 SE13      29.92S HX  92
FARIBAULT      SUNNY     90  70  51 SE12G17   29.92S HX  95
$$

...ELSEWHERE IN MINNESOTA...


CITY           SKY/WX    TMP DP  RH WIND       PRES   REMARKS
MINNEAPOLIS    MOSUNNY   87  73  62 SE12      29.89F HX  94
INTNL FALLS    SUNNY     85  67  54 VRB5      29.86F
DULUTH         MOSUNNY   85  71  63 S12       29.92F HX  90
RED WING       SUNNY     86  70  58 SE10      29.92R HX  90
REDWOOD FALLS  SUNNY     87  74  64 SE14G22   29.84F HX  95
MANKATO        SUNNY     86  72  62 SE14      29.89F HX  92
WORTHINGTON    CLOUDY    81  73  78 SE12      29.88S
FAIRMONT       PTSUNNY   84  72  65 SE13G22   29.88F
$$

...SOUTHWEST WISCONSIN...


CITY           SKY/WX    TMP DP  RH WIND       PRES   REMARKS
LA CROSSE      SUNNY     86  67  52 S16       29.97F
PRAIRIE DU CHI SUNNY     85  65  51 SE9G17    29.99S
BOSCOBEL       SUNNY     87  67  51 S12G18    30.01F HX  90
LONE ROCK      SUNNY     89  68  49 S16       30.02F HX  93
PLATTEVILLE    SUNNY     82  68  62 S14       30.04F
FORT MC COY    SUNNY     85  66  53 S9G17     29.99F
CAMP DOUGLAS   MOSUNNY   82  70  65 S10G18    30.01F
VIROQUA        FAIR      82  68  61 S12       30.02F
WIS DELLS      PTSUNNY   84  64  50 S10G17    30.04S
$$

...ELSEWHERE IN WISCONSIN...


CITY           SKY/WX    TMP DP  RH WIND       PRES   REMARKS
MILWAUKEE      MOSUNNY   82  65  56 S13       30.07F
MADISON        MOSUNNY   85  65  51 S16       30.04F
GREEN BAY        N/A     82  66  58 SW9G17    30.03S
EAU CLAIRE     SUNNY     86  71  60 SE10      29.94F HX  91
BLACK RVR FLS  FAIR      85  67  53 S7        29.98S
MEDFORD        MOSUNNY   80  71  74 S8        30.01F
WAUSAU         MOSUNNY   79  68  69 SW5       30.01S
WIS RAPIDS     SUNNY     84  67  56 S9        30.03S
MARSHFIELD     SUNNY     83  70  64 S12       30.01F
RICE LAKE      SUNNY     85  68  56 SE12      29.96F
$$

...NORTHEAST IOWA...


CITY           SKY/WX    TMP DP  RH WIND       PRES   REMARKS
WATERLOO       PTSUNNY   84  69  60 SE17      29.95F
DUBUQUE        SUNNY     81  68  64 S18G25    30.03F
DECORAH        SUNNY     82  70  65 S12G20    29.98F
MASON CITY     MOSUNNY   85  73  67 S16G23    29.94F HX  91
CHARLES CITY   MOSUNNY   82  73  74 SE14G21   29.97S
OELWEIN        PTSUNNY   82  70  65 S21G29    29.99F
$$

...ELSEWHERE IN IOWA...


CITY           SKY/WX    TMP DP  RH WIND       PRES   REMARKS
DES MOINES     MOSUNNY   88  73  61 S15G24    29.93S HX  95
IOWA CITY      SUNNY     84  71  65 S13       30.02F
FORT DODGE     CLOUDY    82  72  69 S12G17    29.91F
MARSHALLTOWN   PTSUNNY   83  73  72 S15       29.95F
CEDAR RAPIDS   MOSUNNY   83  67  58 S13G21    30.00F
$$

...NORTHERN ILLINOIS...


CITY           SKY/WX    TMP DP  RH WIND       PRES   REMARKS
CHICAGO-OHARE  SUNNY     82  61  48 SW10      30.08F
DUPAGE         SUNNY     83  64  52 S13G18    30.08F
CHICAGO-MIDWAY SUNNY     84  63  49 S12       30.08F
MOLINE         SUNNY     83  67  58 S9G18     30.04F
ROCKFORD       SUNNY     82  66  58 S16       30.08F
STERLING       SUNNY     84  70  61 SW8       30.06F
PEORIA         SUNNY     84  67  56 S9        30.07F
$$

NOTE: "FAIR" INDICATES FEW OR NO CLOUDS BELOW 12,000 FEET WITH NO
SIGNIFICANT WEATHER AND/OR OBSTRUCTIONS TO VISIBILITY. WIND
SPEEDS ARE IN MILES-PER-HOUR.



USA.gov is the U.S. government's official web portal to all federal, state and local government web resources and services.